San Luis Obispo, CA

3:18 AM PST on January 17, 2019 (GMT -0800)
San Luis Obispo County-McChesney

Weather History for KSBP - January, 2019

Change the Weather History Date:

Saturday, January 12, 2019

  Actual Average Record
Temperature  
Mean Temperature 52 °F -  
Max Temperature 59 °F 62 °F 81 °F (2009)
Min Temperature 46 °F 42 °F 15 °F (1963)
Degree Days  
Heating Degree Days 12    
Growing Degree Days 2 (Base 50)    
Moisture  
Dew Point 47 °F    
Average Humidity 82    
Maximum Humidity 93    
Minimum Humidity 62    
Precipitation  
Precipitation 0.01 in - - ()
Sea Level Pressure  
Sea Level Pressure 30.00 in    
Wind  
Wind Speed 5 mph (SSE)    
Max Wind Speed 13 mph    
Max Gust Speed -    
Visibility 10 miles    
Events Rain    
Averages and records for this station are not official NWS values.
T = Trace of Precipitation, MM = Missing Value Source: NWS Daily Summary

Daily Weather History Graph

Daily Weather History Graph

Search for Another Location

Airport or City:

Astronomy

Jan. 12, 2019 Rise Set
Actual Time 7:11 AM PST 5:10 PM PST
Civil Twilight 6:43 AM PST 5:38 PM PST
Nautical Twilight 6:12 AM PST 6:09 PM PST
Astronomical Twilight 5:41 AM PST 6:40 PM PST
Moon 11:09 AM PST (1/12) 11:22 PM PST (1/12)
Length of Visible Light 10h 54m
Length of Day
9h 59m
Waxing Crescent, 36% of the Moon is Illuminated
Jan 12
Waxing Crescent
Jan 13
First Quarter
Jan 20
Full
Jan 27
Last Quarter
Feb 4
New

Hourly Weather History & Observations

Time (PST) Temp. Dew Point Humidity Pressure Visibility Wind Dir Wind Speed Gust Speed Precip Events Conditions
12:56 AM 51.1 °F 46.0 °F 83% 29.92 in 10.0 mi SE 9.2 mph - 0.00 in Rain Light Rain
1:56 AM 51.1 °F 46.0 °F 83% 29.94 in 10.0 mi SSE 5.8 mph - 0.00 in Rain Light Rain
2:56 AM 51.1 °F 46.0 °F 83% 29.94 in 10.0 mi SE 4.6 mph - 0.00 in Rain Light Rain
3:56 AM 50.0 °F 46.9 °F 89% 29.94 in 10.0 mi WNW 3.5 mph - 0.00 in Rain Light Rain
4:56 AM 50.0 °F 48.0 °F 93% 29.94 in 10.0 mi ESE 5.8 mph - 0.01 in Rain Light Rain
5:56 AM 50.0 °F 46.0 °F 86% 29.95 in 10.0 mi SE 4.6 mph - 0.00 in   Overcast
6:56 AM 48.9 °F 46.9 °F 93% 29.96 in 10.0 mi South 3.5 mph - N/A   Mostly Cloudy
7:56 AM 48.0 °F 46.0 °F 93% 29.99 in 10.0 mi Calm Calm - N/A   Clear
8:56 AM 52.0 °F 46.9 °F 83% 30.01 in 10.0 mi Calm Calm - N/A   Clear
9:56 AM 55.0 °F 48.0 °F 77% 30.03 in 10.0 mi Calm Calm - N/A   Clear
10:56 AM 57.0 °F 46.9 °F 69% 30.03 in 10.0 mi Calm Calm - N/A   Overcast
11:56 AM 57.9 °F 46.0 °F 65% 29.99 in 10.0 mi SSE 5.8 mph - N/A   Overcast
12:56 PM 59.0 °F 46.0 °F 62% 29.98 in 10.0 mi SE 4.6 mph - N/A   Mostly Cloudy
1:56 PM 55.9 °F 48.9 °F 77% 29.99 in 10.0 mi SSW 12.7 mph - N/A   Mostly Cloudy
2:53 PM 57.2 °F 50.0 °F 77% 30.00 in 10.0 mi SSW 11.5 mph - N/A   Mostly Cloudy
2:56 PM 57.0 °F 50.0 °F 77% 30.00 in 10.0 mi SSW 10.4 mph - N/A   Mostly Cloudy
3:07 PM 55.9 °F 50.0 °F 80% 30.00 in 10.0 mi SSW 8.1 mph - N/A   Mostly Cloudy
3:10 PM 55.9 °F 50.0 °F 80% 30.01 in 10.0 mi SSW 8.1 mph - N/A   Mostly Cloudy
3:56 PM 57.0 °F 48.9 °F 74% 30.01 in 10.0 mi South 5.8 mph - N/A   Mostly Cloudy
4:56 PM 55.0 °F 48.9 °F 80% 30.02 in 10.0 mi South 4.6 mph - N/A   Scattered Clouds
5:56 PM 54.0 °F 48.9 °F 83% 30.04 in 10.0 mi Calm Calm - N/A   Mostly Cloudy
6:33 PM 54.0 °F 48.9 °F 83% 30.05 in 10.0 mi East 3.5 mph - N/A   Mostly Cloudy
7:07 PM 53.1 °F 48.0 °F 83% 30.05 in 10.0 mi East 4.6 mph - N/A   Scattered Clouds
7:56 PM 51.1 °F 48.0 °F 89% 30.05 in 10.0 mi East 3.5 mph - N/A   Clear
8:56 PM 48.9 °F 46.0 °F 90% 30.05 in 10.0 mi South 3.5 mph - N/A   Clear
9:56 PM 46.0 °F 44.1 °F 93% 30.06 in 10.0 mi Calm Calm - N/A   Clear
10:56 PM 46.9 °F 44.1 °F 90% 30.08 in 10.0 mi ENE 3.5 mph - N/A   Clear
11:56 PM 46.0 °F 44.1 °F 93% 30.07 in 10.0 mi Calm Calm - N/A   Partly Cloudy